Cold Bay, AK

2:05 AM AKDT on July 24, 2017 (GMT -0800)
Cold Bay

Weather History for PACD - October, 2012

Change the Weather History Date:

Saturday, October 27, 2012

  Actual Average Record
Temperature  
Mean Temperature 39 °F 38 °F  
Max Temperature 46 °F 43 °F 51 °F (1978)
Min Temperature 31 °F 33 °F 22 °F (1967)
Degree Days  
Heating Degree Days 26 27  
Month to date heating degree days 619 651  
Since 1 July heating degree days 2136 1997  
Cooling Degree Days 0 0  
Month to date cooling degree days 0 0  
Year to date cooling degree days 0 0  
Moisture  
Dew Point 29 °F    
Average Humidity 0    
Maximum Humidity 0    
Minimum Humidity 0    
Precipitation  
Precipitation 0.00 in 0.15 in 1.36 in (1974)
Month to date precipitation 4.61 4.16  
Year to date precipitation 35.77 31.63  
Snow  
Snow 0.00 in 0.20 in 1.80 in (1968)
Month to date snowfall 0.6 1.8  
Since 1 July snowfall 0.6 1.8  
Since 1 September snowfall 0.6 1.8  
Snow Depth 0.00 in    
Sea Level Pressure  
Sea Level Pressure 29.87 in    
Wind  
Wind Speed 10 mph (NE)    
Max Wind Speed 22 mph    
Max Gust Speed 29 mph    
Visibility 10 miles    
Events      
T = Trace of Precipitation, MM = Missing Value Source: NWS Daily Summary

Daily Weather History Graph

Daily Weather History Graph

Search for Another Location

Airport or City:

Trip Planner

Search our weather history database for the weather conditions in past years. The results will help you decide how hot, cold, wet, or windy it might be!

Date:

Astronomy

Oct. 27, 2012 Rise Set
Actual Time 9:46 AM AKDT 7:21 PM AKDT
Civil Twilight 9:08 AM AKDT 8:00 PM AKDT
Nautical Twilight 8:25 AM AKDT 8:42 PM AKDT
Astronomical Twilight 7:43 AM AKDT 9:24 PM AKDT
Moon 6:22 PM AKDT (10/27) 7:41 AM AKDT (10/27)
Length of Visible Light 10h 51m
Length of Day
9h 35m
Waxing Gibbous, 96% of the Moon is Illuminated
Oct 27
Waxing Gibbous
Oct 29
Full
Nov 6
Last Quarter
Nov 13
New
Nov 20
First Quarter

Hourly Weather History & Observations

Time (AKDT) Temp. Windchill Dew Point Humidity Pressure Visibility Wind Dir Wind Speed Gust Speed Precip Events Conditions
12:53 AM 35.1 °F 26.9 °F 28.9 °F 78% 29.88 in 10.0 mi NNE 11.5 mph - N/A   Clear
1:53 AM 34.0 °F 27.2 °F 28.0 °F 79% 29.88 in 10.0 mi NNE 8.1 mph - N/A   Clear
2:53 AM 37.0 °F - 28.0 °F 70% 29.88 in 10.0 mi Calm Calm - N/A   Clear
3:53 AM 37.0 °F 31.0 °F 27.0 °F 67% 29.87 in 10.0 mi NE 8.1 mph - N/A   Clear
4:53 AM 33.1 °F 23.9 °F 26.1 °F 75% 29.87 in 10.0 mi North 12.7 mph - N/A   Clear
5:53 AM 36.0 °F 28.5 °F 27.0 °F 70% 29.86 in 10.0 mi NNE 10.4 mph - N/A   Clear
6:53 AM 37.0 °F 26.7 °F 28.9 °F 73% 29.84 in 10.0 mi East 19.6 mph 25.3 mph N/A   Clear
7:04 AM 39.2 °F 35.0 °F 28.4 °F 65% 29.84 in 10.0 mi Variable 5.8 mph 18.4 mph N/A   Clear
7:53 AM 39.0 °F 32.3 °F 28.9 °F 67% 29.85 in 10.0 mi NNE 10.4 mph - N/A   Clear
8:53 AM 35.1 °F 29.3 °F 26.1 °F 70% 29.85 in 10.0 mi NNE 6.9 mph - N/A   Clear
9:53 AM 35.1 °F 26.9 °F 27.0 °F 72% 29.86 in 10.0 mi NNE 11.5 mph - N/A   Partly Cloudy
10:53 AM 39.9 °F 33.9 °F 30.0 °F 68% 29.85 in 10.0 mi NE 9.2 mph - N/A   Partly Cloudy
11:26 AM 42.8 °F 36.2 °F 32.0 °F 66% 29.86 in 10.0 mi ENE 12.7 mph 23.0 mph N/A   Partly Cloudy
11:53 AM 42.1 °F 37.7 °F 28.9 °F 60% 29.87 in 10.0 mi NE 6.9 mph - N/A   Partly Cloudy
12:53 PM 44.1 °F 39.0 °F 30.0 °F 58% 29.86 in 10.0 mi NNE 9.2 mph - N/A   Partly Cloudy
1:53 PM 44.1 °F 35.7 °F 32.0 °F 63% 29.86 in 10.0 mi East 20.7 mph 27.6 mph N/A   Partly Cloudy
2:00 PM 44.6 °F 37.2 °F 32.0 °F 61% 29.86 in 10.0 mi East 17.3 mph 28.8 mph N/A   Partly Cloudy
2:53 PM 46.0 °F 39.9 °F 33.1 °F 61% 29.86 in 10.0 mi East 13.8 mph 19.6 mph N/A   Partly Cloudy
3:53 PM 46.0 °F 39.0 °F 32.0 °F 58% 29.86 in 10.0 mi East 17.3 mph 23.0 mph N/A   Partly Cloudy
4:53 PM 46.0 °F 39.9 °F 32.0 °F 58% 29.86 in 10.0 mi East 13.8 mph - N/A   Partly Cloudy
5:53 PM 45.0 °F 40.6 °F 30.9 °F 58% 29.86 in 10.0 mi East 8.1 mph - N/A   Clear
6:53 PM 43.0 °F 36.8 °F 30.9 °F 62% 29.86 in 10.0 mi East 11.5 mph - N/A   Clear
7:53 PM 39.9 °F 36.7 °F 30.9 °F 70% 29.88 in 10.0 mi NE 4.6 mph - N/A   Clear
8:53 PM 36.0 °F 30.3 °F 28.0 °F 73% 29.90 in 10.0 mi NNE 6.9 mph - N/A   Clear
9:53 PM 32.0 °F 28.7 °F 25.0 °F 75% 29.91 in 10.0 mi Variable 3.5 mph - N/A   Clear
10:53 PM 37.9 °F 34.4 °F 30.9 °F 76% 29.91 in 10.0 mi NE 4.6 mph - N/A   Clear
11:53 PM 37.0 °F 33.3 °F 28.0 °F 70% 29.93 in 10.0 mi WSW 4.6 mph - N/A   Clear